Time,TemperatureF,DewpointF,PressureIn,WindDirection,WindDirectionDegrees,WindSpeedMPH,WindSpeedGustMPH,Humidity,HourlyPrecipIn,Conditions,Clouds,dailyrainin,SoftwareType,DateUTC
2013-05-16 00:02:00,63.0,46.0,-100.00,NNE,30,3.0,3.0,54,0.00,,,-99.99,,2013-05-16 05:02:00,
2013-05-16 00:12:00,63.0,47.0,-100.00,North,10,4.0,7.0,55,0.00,,,-99.99,,2013-05-16 05:12:00,
2013-05-16 00:22:00,62.0,47.0,-100.00,NE,35,3.0,4.0,56,0.00,,,-99.99,,2013-05-16 05:22:00,
2013-05-16 00:32:00,63.0,48.0,-100.00,ENE,60,4.0,6.0,57,0.00,,,-99.99,,2013-05-16 05:32:00,
2013-05-16 00:42:00,63.0,48.0,-100.00,ENE,60,4.0,6.0,57,0.00,,,-99.99,,2013-05-16 05:42:00,
2013-05-16 00:52:00,63.0,49.0,-100.00,ENE,65,4.0,6.0,59,0.00,,,-99.99,,2013-05-16 05:52:00,
2013-05-16 01:01:00,63.0,49.0,-100.00,ENE,65,4.0,6.0,59,0.00,,,-99.99,,2013-05-16 06:01:00,
2013-05-16 01:12:00,65.0,49.0,-100.00,ESE,105,4.0,5.0,57,0.00,,,-99.99,,2013-05-16 06:12:00,
2013-05-16 01:22:00,66.0,49.0,-100.00,East,100,4.0,6.0,56,0.00,,,-99.99,,2013-05-16 06:22:00,
2013-05-16 01:33:00,62.0,49.0,-100.00,ENE,65,3.0,49.0,63,0.25,,,-99.99,,2013-05-16 06:33:00,
2013-05-16 01:43:00,62.0,49.0,-100.00,ENE,65,3.0,49.0,63,0.25,,,-99.99,,2013-05-16 06:43:00,
2013-05-16 01:52:00,62.0,53.0,-100.00,SSW,195,2.0,5.0,73,0.00,,,-99.99,,2013-05-16 06:52:00,
2013-05-16 02:02:00,62.0,53.0,-100.00,SSW,195,2.0,5.0,73,0.00,,,-99.99,,2013-05-16 07:02:00,
2013-05-16 02:12:00,62.0,54.0,-100.00,ESE,115,2.0,7.0,76,0.00,,,-99.99,,2013-05-16 07:12:00,
2013-05-16 02:24:00,62.0,55.0,-100.00,ESE,115,4.0,6.0,75,0.00,,,-99.99,,2013-05-16 07:24:00,
2013-05-16 02:34:00,62.0,56.0,-100.00,SE,125,7.0,9.0,81,0.00,,,-99.99,,2013-05-16 07:34:00,
2013-05-16 02:44:00,62.0,56.0,-100.00,SE,125,7.0,9.0,81,0.00,,,-99.99,,2013-05-16 07:44:00,
2013-05-16 02:54:00,63.0,56.0,-100.00,ESE,105,7.0,11.0,79,0.00,,,-99.99,,2013-05-16 07:54:00,
2013-05-16 03:03:00,63.0,56.0,-100.00,ESE,105,7.0,11.0,79,0.00,,,-99.99,,2013-05-16 08:03:00,
2013-05-16 03:13:00,62.0,56.0,-100.00,East,95,7.0,9.0,79,0.00,,,-99.99,,2013-05-16 08:13:00,
2013-05-16 03:23:00,62.0,56.0,-100.00,SE,135,6.0,9.0,79,0.00,,,-99.99,,2013-05-16 08:23:00,
2013-05-16 03:34:00,61.0,57.0,-100.00,ESE,120,6.0,7.0,87,0.00,,,-99.99,,2013-05-16 08:34:00,
2013-05-16 03:44:00,61.0,57.0,-100.00,ESE,120,6.0,7.0,87,0.00,,,-99.99,,2013-05-16 08:44:00,
2013-05-16 03:54:00,60.0,58.0,-100.00,SSE,165,6.0,7.0,90,0.00,,,-99.99,,2013-05-16 08:54:00,
2013-05-16 04:04:00,60.0,58.0,-100.00,SSE,165,6.0,7.0,90,0.00,,,-99.99,,2013-05-16 09:04:00,
2013-05-16 04:14:00,60.0,58.0,-100.00,SSE,150,7.0,7.0,91,0.00,,,-99.99,,2013-05-16 09:14:00,
2013-05-16 04:24:00,61.0,58.0,-100.00,SE,130,7.0,9.0,90,0.00,,,-99.99,,2013-05-16 09:24:00,
2013-05-16 04:35:00,61.0,57.0,-100.00,SE,145,5.0,9.0,87,0.00,,,-99.99,,2013-05-16 09:35:00,
2013-05-16 04:45:00,61.0,57.0,-100.00,SE,145,5.0,9.0,87,0.00,,,-99.99,,2013-05-16 09:45:00,
2013-05-16 04:55:00,60.0,57.0,-100.00,East,80,3.0,4.0,91,0.00,,,-99.99,,2013-05-16 09:55:00,
2013-05-16 05:05:00,60.0,57.0,-100.00,East,80,3.0,4.0,91,0.00,,,-99.99,,2013-05-16 10:05:00,
2013-05-16 05:15:00,60.0,58.0,-100.00,ESE,120,4.0,5.0,91,0.00,,,-99.99,,2013-05-16 10:15:00,
2013-05-16 05:24:00,60.0,57.0,-100.00,SE,130,3.0,4.0,92,0.00,,,-99.99,,2013-05-16 10:24:00,
2013-05-16 05:36:00,60.0,57.0,-100.00,ESE,105,4.0,6.0,92,0.00,,,-99.99,,2013-05-16 10:36:00,
2013-05-16 05:45:00,60.0,57.0,-100.00,ESE,105,4.0,6.0,92,0.00,,,-99.99,,2013-05-16 10:45:00,
2013-05-16 05:56:00,59.0,57.0,-100.00,ESE,105,5.0,6.0,94,0.00,,,-99.99,,2013-05-16 10:56:00,
2013-05-16 06:05:00,59.0,57.0,-100.00,ESE,105,5.0,6.0,94,0.00,,,-99.99,,2013-05-16 11:05:00,
2013-05-16 06:14:00,59.0,57.0,-100.00,East,90,4.0,6.0,94,0.00,,,-99.99,,2013-05-16 11:14:00,
2013-05-16 06:25:00,59.0,58.0,-100.00,East,85,4.0,6.0,95,0.00,,,-99.99,,2013-05-16 11:25:00,
2013-05-16 06:35:00,59.0,58.0,-100.00,NE,55,2.0,4.0,95,0.00,,,-99.99,,2013-05-16 11:35:00,
2013-05-16 06:46:00,59.0,58.0,-100.00,NE,55,2.0,4.0,95,0.00,,,-99.99,,2013-05-16 11:46:00,
2013-05-16 06:56:00,59.0,57.0,-100.00,ENE,60,1.0,4.0,94,0.00,,,-99.99,,2013-05-16 11:56:00,
2013-05-16 07:06:00,59.0,57.0,-100.00,ENE,60,1.0,4.0,94,0.00,,,-99.99,,2013-05-16 12:06:00,
2013-05-16 07:13:00,59.0,58.0,-100.00,NE,55,0.0,2.0,94,0.00,,,-99.99,,2013-05-16 12:13:00,
2013-05-16 07:23:00,60.0,58.0,-100.00,East,95,2.0,3.0,93,0.00,,,-99.99,,2013-05-16 12:23:00,
2013-05-16 07:34:00,61.0,58.0,-100.00,East,90,4.0,6.0,91,0.00,,,-99.99,,2013-05-16 12:34:00,
2013-05-16 07:45:00,61.0,58.0,-100.00,East,90,4.0,6.0,91,0.00,,,-99.99,,2013-05-16 12:45:00,
2013-05-16 07:53:00,62.0,58.0,-100.00,East,100,4.0,6.0,86,0.00,,,-99.99,,2013-05-16 12:53:00,
2013-05-16 08:04:00,62.0,58.0,-100.00,East,100,4.0,6.0,86,0.00,,,-99.99,,2013-05-16 13:04:00,
2013-05-16 08:12:00,62.0,58.0,-100.00,SE,125,5.0,7.0,86,0.00,,,-99.99,,2013-05-16 13:12:00,
2013-05-16 08:26:00,62.0,58.0,-100.00,SE,135,3.0,6.0,87,0.00,,,-99.99,,2013-05-16 13:26:00,
2013-05-16 08:35:00,63.0,60.0,-100.00,SE,135,3.0,4.0,89,0.00,,,-99.99,,2013-05-16 13:35:00,
2013-05-16 08:43:00,63.0,60.0,-100.00,SE,135,3.0,4.0,89,0.00,,,-99.99,,2013-05-16 13:43:00,
2013-05-16 08:55:00,63.0,61.0,-100.00,SE,145,4.0,6.0,90,0.00,,,-99.99,,2013-05-16 13:55:00,
2013-05-16 09:05:00,63.0,61.0,-100.00,SE,145,4.0,6.0,90,0.00,,,-99.99,,2013-05-16 14:05:00,
2013-05-16 09:15:00,64.0,61.0,-100.00,SSE,150,6.0,7.0,90,0.00,,,-99.99,,2013-05-16 14:15:00,
2013-05-16 09:23:00,64.0,62.0,-100.00,SE,145,2.0,6.0,90,0.00,,,-99.99,,2013-05-16 14:23:00,
2013-05-16 09:37:00,67.0,63.0,-100.00,SSE,160,6.0,7.0,85,0.01,,,-99.99,,2013-05-16 14:37:00,
2013-05-16 09:47:00,67.0,63.0,-100.00,SSE,160,6.0,7.0,85,0.01,,,-99.99,,2013-05-16 14:47:00,
2013-05-16 09:55:00,68.0,63.0,-100.00,SSE,160,6.0,7.0,85,0.00,,,-99.99,,2013-05-16 14:55:00,
2013-05-16 10:08:00,68.0,63.0,-100.00,SSE,160,6.0,7.0,85,0.00,,,-99.99,,2013-05-16 15:08:00,
2013-05-16 10:17:00,69.0,63.0,-100.00,South,170,5.0,7.0,81,0.00,,,-99.99,,2013-05-16 15:17:00,
2013-05-16 10:28:00,70.0,63.0,-100.00,SSE,155,6.0,8.0,78,0.00,,,-99.99,,2013-05-16 15:28:00,
2013-05-16 10:40:00,72.0,64.0,-100.00,SE,130,5.0,8.0,74,0.00,,,-99.99,,2013-05-16 15:40:00,
2013-05-16 10:50:00,72.0,64.0,-100.00,SE,130,5.0,8.0,74,0.00,,,-99.99,,2013-05-16 15:50:00,
2013-05-16 11:00:00,74.0,62.0,-100.00,SE,135,5.0,9.0,67,0.00,,,-99.99,,2013-05-16 16:00:00,
2013-05-16 11:09:00,74.0,62.0,-100.00,SE,135,5.0,9.0,67,0.00,,,-99.99,,2013-05-16 16:09:00,
2013-05-16 11:19:00,74.0,62.0,-100.00,ESE,110,6.0,9.0,65,0.00,,,-99.99,,2013-05-16 16:19:00,
2013-05-16 11:30:00,74.0,61.0,-100.00,SE,135,6.0,9.0,63,0.00,,,-99.99,,2013-05-16 16:30:00,
2013-05-16 11:40:00,74.0,-99.9,-100.00,SSE,150,6.0,9.0,61,0.00,,,-99.99,,2013-05-16 16:40:00,
2013-05-16 11:50:00,74.0,60.0,-100.00,SSE,150,6.0,9.0,61,0.00,,,-99.99,,2013-05-16 16:50:00,
2013-05-16 12:00:00,75.0,61.0,-100.00,ESE,110,6.0,9.0,62,0.00,,,-99.99,,2013-05-16 17:00:00,
2013-05-16 12:10:00,75.0,61.0,-100.00,ESE,110,6.0,9.0,62,0.00,,,-99.99,,2013-05-16 17:10:00,
2013-05-16 12:20:00,76.0,62.0,-100.00,ESE,105,7.0,9.0,61,0.00,,,-99.99,,2013-05-16 17:20:00,
2013-05-16 12:30:00,76.0,62.0,-100.00,SSE,150,7.0,9.0,60,0.00,,,-99.99,,2013-05-16 17:30:00,
2013-05-16 12:40:00,77.0,62.0,-100.00,SE,130,6.0,10.0,60,0.00,,,-99.99,,2013-05-16 17:40:00,
2013-05-16 12:50:00,77.0,-99.9,-100.00,SE,130,6.0,10.0,60,0.00,,,-99.99,,2013-05-16 17:50:00,
2013-05-16 13:00:00,78.0,-99.9,-100.00,SE,135,6.0,9.0,59,0.00,,,-99.99,,2013-05-16 18:00:00,
2013-05-16 13:10:00,78.0,63.0,-100.00,SE,135,6.0,9.0,59,0.00,,,-99.99,,2013-05-16 18:10:00,
2013-05-16 13:20:00,78.0,63.0,-100.00,SE,140,6.0,12.0,59,0.00,,,-99.99,,2013-05-16 18:20:00,
2013-05-16 13:30:00,-999.0,-99.9,-100.00,ESE,110,9.0,12.0,59,0.00,,,-99.99,,2013-05-16 18:30:00,
2013-05-16 13:40:00,-999.0,-99.9,-100.00,SE,125,7.0,11.0,56,0.00,,,-99.99,,2013-05-16 18:40:00,
2013-05-16 13:50:00,-999.0,-99.9,-100.00,SE,125,7.0,11.0,56,0.00,,,-99.99,,2013-05-16 18:50:00,
2013-05-16 14:00:00,-999.0,-99.9,-100.00,SE,145,9.0,13.0,52,0.00,,,-99.99,,2013-05-16 19:00:00,
2013-05-16 14:10:00,80.0,61.0,-100.00,SE,145,9.0,13.0,52,0.00,,,-99.99,,2013-05-16 19:10:00,
2013-05-16 14:20:00,80.0,60.0,-100.00,SE,145,10.0,12.0,49,0.00,,,-99.99,,2013-05-16 19:20:00,
2013-05-16 14:30:00,80.0,58.0,-100.00,South,170,9.0,16.0,47,0.00,,,-99.99,,2013-05-16 19:30:00,
2013-05-16 14:40:00,80.0,-99.9,-100.00,SSE,150,11.0,16.0,47,0.00,,,-99.99,,2013-05-16 19:40:00,
2013-05-16 14:50:00,-999.0,-99.9,-100.00,SSE,150,11.0,16.0,47,0.00,,,-99.99,,2013-05-16 19:50:00,
2013-05-16 15:00:00,81.0,-99.9,-100.00,SSE,160,9.0,13.0,45,0.00,,,-99.99,,2013-05-16 20:00:00,
2013-05-16 15:10:00,-999.0,-99.9,-100.00,SSE,160,9.0,13.0,45,0.00,,,-99.99,,2013-05-16 20:10:00,
2013-05-16 15:20:00,81.0,-99.9,-100.00,SE,135,10.0,15.0,45,0.00,,,-99.99,,2013-05-16 20:20:00,
2013-05-16 15:30:00,81.0,59.0,-100.00,SSE,165,9.0,14.0,47,0.00,,,-99.99,,2013-05-16 20:30:00,
2013-05-16 15:40:00,-999.0,-99.9,-100.00,ESE,120,10.0,16.0,47,0.00,,,-99.99,,2013-05-16 20:40:00,
2013-05-16 15:50:00,81.0,60.0,-100.00,ESE,120,10.0,16.0,47,0.00,,,-99.99,,2013-05-16 20:50:00,
2013-05-16 16:00:00,82.0,59.0,-100.00,SSE,150,11.0,14.0,45,0.00,,,-99.99,,2013-05-16 21:00:00,
2013-05-16 16:10:00,82.0,-99.9,-100.00,SSE,150,11.0,14.0,45,0.00,,,-99.99,,2013-05-16 21:10:00,
2013-05-16 16:20:00,81.0,-99.9,-100.00,SE,145,11.0,14.0,45,0.00,,,-99.99,,2013-05-16 21:20:00,
2013-05-16 16:29:00,82.0,59.0,-100.00,SSE,150,9.0,12.0,46,0.00,,,-99.99,,2013-05-16 21:29:00,
2013-05-16 16:38:00,81.0,60.0,-100.00,SE,145,9.0,12.0,48,0.00,,,-99.99,,2013-05-16 21:38:00,
2013-05-16 16:50:00,81.0,-99.9,-100.00,SE,145,9.0,12.0,48,0.00,,,-99.99,,2013-05-16 21:50:00,
2013-05-16 17:00:00,-999.0,-99.9,-100.00,SE,145,7.0,11.0,49,0.00,,,-99.99,,2013-05-16 22:00:00,
2013-05-16 17:08:00,81.0,60.0,-100.00,SE,145,7.0,11.0,49,0.00,,,-99.99,,2013-05-16 22:08:00,
2013-05-16 17:20:00,81.0,60.0,-100.00,SSE,155,7.0,11.0,50,0.00,,,-99.99,,2013-05-16 22:20:00,
2013-05-16 17:30:00,81.0,61.0,-100.00,SSE,155,7.0,9.0,50,0.00,,,-99.99,,2013-05-16 22:30:00,
2013-05-16 17:40:00,81.0,61.0,-100.00,South,175,6.0,11.0,49,0.00,,,-99.99,,2013-05-16 22:40:00,
2013-05-16 17:50:00,81.0,61.0,-100.00,South,175,6.0,11.0,49,0.00,,,-99.99,,2013-05-16 22:50:00,
2013-05-16 18:00:00,82.0,61.0,-100.00,South,185,7.0,11.0,49,0.00,,,-99.99,,2013-05-16 23:00:00,
2013-05-16 18:06:00,82.0,61.0,-100.00,South,185,7.0,11.0,49,0.00,,,-99.99,,2013-05-16 23:06:00,
2013-05-16 18:16:00,82.0,62.0,-100.00,South,170,6.0,9.0,50,0.00,,,-99.99,,2013-05-16 23:16:00,
2013-05-16 18:24:00,81.0,62.0,-100.00,South,170,7.0,12.0,50,0.00,,,-99.99,,2013-05-16 23:24:00,
2013-05-16 18:35:00,81.0,62.0,-100.00,SSE,160,7.0,10.0,52,0.00,,,-99.99,,2013-05-16 23:35:00,
2013-05-16 18:45:00,81.0,62.0,-100.00,SSE,160,7.0,10.0,52,0.00,,,-99.99,,2013-05-16 23:45:00,
2013-05-16 18:54:00,80.0,62.0,-100.00,South,180,7.0,11.0,54,0.00,,,-99.99,,2013-05-16 23:54:00,
2013-05-16 19:02:00,80.0,62.0,-100.00,South,180,7.0,11.0,54,0.00,,,-99.99,,2013-05-17 00:02:00,
2013-05-16 19:13:00,80.0,62.0,-100.00,South,170,8.0,10.0,55,0.00,,,-99.99,,2013-05-17 00:13:00,
2013-05-16 19:22:00,79.0,62.0,-100.00,South,170,7.0,9.0,56,0.00,,,-99.99,,2013-05-17 00:22:00,
2013-05-16 19:33:00,78.0,63.0,-100.00,SSE,155,6.0,8.0,60,0.00,,,-99.99,,2013-05-17 00:33:00,
2013-05-16 19:43:00,78.0,63.0,-100.00,SSE,155,6.0,8.0,60,0.00,,,-99.99,,2013-05-17 00:43:00,
2013-05-16 19:52:00,77.0,64.0,-100.00,South,185,6.0,7.0,64,0.00,,,-99.99,,2013-05-17 00:52:00,
2013-05-16 20:03:00,77.0,64.0,-100.00,South,185,6.0,7.0,64,0.00,,,-99.99,,2013-05-17 01:03:00,
2013-05-16 20:12:00,76.0,63.0,-100.00,SSE,150,2.0,6.0,64,0.00,,,-99.99,,2013-05-17 01:12:00,
2013-05-16 20:23:00,75.0,63.0,-100.00,South,185,2.0,3.0,66,0.00,,,-99.99,,2013-05-17 01:23:00,
2013-05-16 20:32:00,74.0,63.0,-100.00,South,190,2.0,4.0,68,0.00,,,-99.99,,2013-05-17 01:32:00,
2013-05-16 20:43:00,74.0,63.0,-100.00,South,190,2.0,4.0,68,0.00,,,-99.99,,2013-05-17 01:43:00,
2013-05-16 20:52:00,73.0,63.0,-100.00,WSW,250,1.0,1.0,70,0.00,,,-99.99,,2013-05-17 01:52:00,
2013-05-16 21:02:00,73.0,63.0,-100.00,WSW,250,1.0,1.0,70,0.00,,,-99.99,,2013-05-17 02:02:00,
2013-05-16 21:11:00,73.0,63.0,-100.00,SSW,195,0.0,1.0,71,0.00,,,-99.99,,2013-05-17 02:11:00,
2013-05-16 21:21:00,72.0,63.0,-100.00,South,170,0.0,1.0,73,0.00,,,-99.99,,2013-05-17 02:21:00,
2013-05-16 21:32:00,71.0,63.0,-100.00,SE,140,3.0,3.0,75,0.00,,,-99.99,,2013-05-17 02:32:00,
2013-05-16 21:42:00,71.0,63.0,-100.00,SE,140,3.0,3.0,75,0.00,,,-99.99,,2013-05-17 02:42:00,
2013-05-16 21:53:00,71.0,63.0,-100.00,SE,125,3.0,3.0,75,0.00,,,-99.99,,2013-05-17 02:53:00,
2013-05-16 22:02:00,71.0,63.0,-100.00,SE,125,3.0,3.0,75,0.00,,,-99.99,,2013-05-17 03:02:00,
2013-05-16 22:11:00,71.0,63.0,-100.00,SE,125,4.0,4.0,77,0.00,,,-99.99,,2013-05-17 03:11:00,
2013-05-16 22:22:00,69.0,63.0,-100.00,SSE,165,5.0,8.0,81,0.00,,,-99.99,,2013-05-17 03:22:00,
2013-05-16 22:34:00,68.0,64.0,-100.00,South,175,2.0,4.0,85,0.00,,,-99.99,,2013-05-17 03:34:00,
2013-05-16 22:43:00,68.0,64.0,-100.00,South,175,2.0,4.0,85,0.00,,,-99.99,,2013-05-17 03:43:00,
2013-05-16 22:53:00,68.0,64.0,-100.00,South,190,1.0,2.0,87,0.00,,,-99.99,,2013-05-17 03:53:00,
2013-05-16 23:02:00,68.0,64.0,-100.00,South,190,1.0,2.0,87,0.00,,,-99.99,,2013-05-17 04:02:00,
2013-05-16 23:13:00,67.0,64.0,-100.00,South,185,3.0,3.0,88,0.00,,,-99.99,,2013-05-17 04:13:00,
2013-05-16 23:23:00,67.0,64.0,-100.00,South,185,2.0,4.0,89,0.00,,,-99.99,,2013-05-17 04:23:00,
2013-05-16 23:33:00,66.0,64.0,-100.00,SE,140,4.0,6.0,91,0.00,,,-99.99,,2013-05-17 04:33:00,
2013-05-16 23:43:00,66.0,64.0,-100.00,SE,140,4.0,6.0,91,0.00,,,-99.99,,2013-05-17 04:43:00,
2013-05-16 23:53:00,66.0,64.0,-100.00,SE,125,3.0,4.0,91,0.00,,,-99.99,,2013-05-17 04:53:00,